sat.trackr.live / text

‹ back to catalog

STARLINK-2587

NORAD 48399 · 2021-038AY

PAYLOAD ACTIVE UNKNOWN

§ Identity

Operator
Country
US
Launch date
2021-05-04
Launch site
AFETR
Launch vehicle
Mass (kg)
RCS (m²)

Purposes: comms

External: N2YO · Heavens-Above · Gunter

§ Orbital elements

Epoch: 2026-09-20T04:05:28.093056Z

Period
94.01 min
Inclination
53.1610°
Eccentricity
0.0001316
Mean motion
15.31711012 rev/d
Perigee alt
469.8 km
Apogee alt
471.6 km
Semi-major
6,848.8 km
B*
7.7028e-5
RAAN
147.4917°
Arg perigee
86.8192°
Mean anomaly
273.2960°
Rev number
29,845

§ Raw data

STARLINK-25871 48399U 21038AY  26263.17046404  .00002027  00000+0  77028-4 0  99902 48399  53.1610 147.4917 0001316  86.8192 273.2960 15.31711012298458

JSON: /api/v1/satellites/48399 · /tle

For live sub-satellite position, see the globe view (requires WebGL).

§ Visibility from observer

Set your observer location to see the next 7 days of passes ≥ 10°. The values pass through the URL so the page stays shareable.

No JS? Fill the form by hand. The geolocation button needs JavaScript.